Wind_Speed
16 16 16 16 17 17 17 17 18 18 18 18 17 18 18 18 18 17 17 17 17 16 16 15 15 15 15 14 13 12 13 13 15 15 11 10 16 22 21 20 19 19 20 24 27 26 26 24 22 20 18 17 14 12 13 13 10 8 5 3 2 3 3 5 5 3 4 2 9 9 8 8 13 17 14 16 15 8 6 7 5 4 3 6 13 19 25 26
16 17 17 17 17 17 18 18 18 18 18 18 17 17 18 18 18 18 17 17 17 17 17 16 16 16 16 15 13 13 13 13 13 10 7 13 23 26 23 21 20 19 20 24 26 26 26 24 23 22 19 18 14 14 13 12 11 8 6 4 3 5 5 6 5 3 1 1 8 8 6 8 13 18 17 16 15 13 12 11 8 7 7 11 15 21 25 25
17 18 18 18 18 18 19 19 19 19 19 19 18 18 18 18 18 18 17 17 17 18 18 18 17 16 16 15 14 13 13 12 10 8 10 17 23 23 21 20 19 17 17 20 23 24 24 22 22 22 21 18 15 15 13 12 11 8 7 6 5 6 5 6 4 3 3 1 6 6 5 9 15 19 17 15 13 13 13 10 7 8 10 13 18 23 25 25
19 19 19 20 20 20 20 20 20 20 20 20 19 19 18 18 18 19 18 17 17 18 19 18 18 17 17 16 15 14 13 12 10 7 11 17 19 21 21 19 18 17 17 20 23 24 24 23 22 22 21 19 17 16 14 13 11 9 9 5 7 6 5 8 5 5 5 2 8 7 5 10 13 16 16 15 14 13 12 7 3 3 10 15 19 24 25 25
20 20 21 21 21 21 21 21 21 21 21 21 20 20 20 19 19 19 19 17 17 18 19 19 19 18 17 16 15 15 13 11 8 5 8 15 17 19 20 20 18 16 17 21 25 26 26 26 24 24 23 21 20 19 17 14 11 11 10 6 6 2 3 7 6 6 4 4 11 9 9 12 12 14 16 17 14 10 6 5 5 2 6 12 18 23 25 24
21 21 21 22 22 22 22 22 22 22 23 22 22 21 21 21 20 20 20 19 17 17 18 19 19 18 18 17 16 15 13 10 6 5 6 11 14 16 18 19 19 18 19 22 25 28 29 28 28 28 26 23 23 20 17 14 12 14 12 5 5 2 2 4 2 6 3 5 12 12 12 12 12 15 16 18 16 11 5 3 5 3 5 8 14 20 24 24
21 21 21 21 22 22 22 23 23 23 23 23 23 22 22 22 22 22 21 20 19 18 18 19 19 18 18 18 17 17 13 10 10 10 8 8 12 15 17 18 20 21 21 22 26 30 31 31 32 30 27 26 24 20 16 15 15 14 12 7 5 3 3 1 4 8 7 6 11 11 9 9 14 17 17 20 17 13 9 6 5 4 7 9 12 18 20 21
19 20 20 20 21 21 22 22 23 23 24 24 24 23 23 23 23 22 22 22 21 19 18 19 19 19 18 18 19 17 13 12 13 11 9 9 11 15 19 21 21 22 21 21 24 28 31 33 33 31 29 27 24 21 17 16 17 16 12 8 8 7 7 7 7 9 9 8 11 9 6 8 14 14 16 22 19 15 12 10 9 7 9 12 12 15 18 21
19 19 19 20 21 21 21 22 22 23 23 24 24 24 23 23 23 23 23 23 22 22 20 20 19 19 19 19 19 17 13 14 13 11 10 10 12 15 20 21 21 20 20 20 21 26 31 33 33 31 30 26 22 21 18 18 19 15 11 9 10 9 8 10 10 9 8 10 12 10 8 10 13 13 16 22 21 18 16 13 12 11 11 13 13 15 17 20
20 20 20 20 21 21 21 22 22 22 23 24 24 24 23 23 23 23 24 23 23 23 23 21 20 20 19 19 19 15 12 14 13 11 10 9 12 15 17 19 20 19 19 20 22 26 31 31 30 28 27 25 23 21 20 21 17 13 13 12 14 14 13 13 12 10 8 10 14 11 10 14 14 14 17 23 24 20 17 15 14 12 12 13 15 16 17 20
21 21 21 21 21 22 22 21 21 22 23 23 24 24 24 23 23 23 23 24 23 23 24 23 23 22 20 21 18 12 12 16 14 12 12 12 12 13 14 17 19 20 19 19 20 23 27 27 26 26 26 25 24 21 21 21 16 16 18 18 20 21 23 21 17 15 11 11 16 13 12 18 18 16 16 20 23 20 16 15 15 12 12 14 16 17 17 20
21 22 22 22 22 22 22 21 21 21 22 22 23 23 24 24 23 23 23 24 23 24 25 24 25 24 24 22 14 8 14 18 17 17 18 16 14 14 16 17 17 19 21 19 18 19 23 25 26 28 27 23 22 20 20 22 19 20 20 22 23 22 27 30 26 21 15 12 15 17 16 17 20 17 17 20 20 19 16 14 14 12 13 16 17 18 18 19
21 21 21 22 22 22 22 21 21 21 22 23 23 23 23 23 22 22 22 23 23 24 25 25 26 25 28 24 9 8 15 18 21 23 22 18 15 16 18 19 18 18 21 20 16 15 19 25 28 30 27 22 21 17 16 21 21 21 21 23 23 22 25 29 30 25 18 14 14 19 19 17 19 17 16 20 22 21 18 15 15 14 16 18 18 19 19 19
21 20 20 21 22 22 22 22 22 22 22 23 24 24 24 24 23 22 21 21 22 24 25 26 26 26 30 24 11 13 19 21 24 23 20 18 16 16 18 20 20 19 21 21 18 16 18 25 28 29 26 25 23 17 17 19 20 21 23 23 24 25 25 24 29 28 20 18 17 18 20 18 19 18 17 21 25 23 20 18 17 16 17 18 19 20 20 20
20 20 20 21 23 23 22 23 23 23 24 24 25 26 26 26 25 24 22 21 20 22 24 26 27 27 31 25 16 18 21 22 24 21 19 19 17 16 17 20 21 20 20 21 22 19 21 27 29 30 29 26 22 20 22 22 22 22 22 23 24 25 24 21 25 29 22 20 20 17 19 19 19 20 21 24 27 24 22 22 19 18 18 17 18 20 20 20
21 21 21 23 24 24 23 24 24 24 24 25 26 26 28 28 27 25 23 20 20 21 23 25 26 27 29 24 18 20 22 19 18 19 22 21 18 15 14 17 20 19 21 22 24 22 25 30 30 30 28 26 25 24 24 24 27 27 23 23 22 21 21 19 21 26 22 19 23 20 19 23 21 23 26 28 28 26 26 25 21 20 19 18 18 18 19 20
23 23 23 24 26 26 24 24 25 24 24 25 26 26 29 29 28 26 21 17 18 20 22 24 24 27 27 22 17 17 20 21 21 22 23 21 18 16 16 18 19 19 21 22 25 25 29 33 31 30 30 29 30 26 24 28 32 31 26 25 23 19 19 20 20 22 21 21 26 25 24 25 22 23 28 31 30 28 29 27 22 22 20 18 18 18 18 19
25 25 25 25 26 26 25 24 26 25 25 26 27 28 30 30 30 27 20 16 16 16 21 23 22 25 23 19 19 18 17 20 24 26 25 22 19 18 18 18 18 19 22 25 28 29 32 36 32 29 31 33 33 32 32 34 34 32 28 26 24 21 20 22 23 24 24 24 27 29 29 28 24 23 26 29 32 32 33 28 22 22 20 17 19 20 19 19
26 26 26 26 26 26 25 25 27 26 26 26 27 29 29 29 29 27 21 18 19 19 22 24 23 25 22 16 14 17 21 20 21 26 27 24 21 19 18 17 17 18 24 29 31 32 35 36 33 32 38 41 41 41 40 35 30 30 28 25 24 22 23 23 24 25 26 27 30 31 32 31 29 27 25 29 35 37 34 28 25 24 20 16 17 20 20 20
28 27 27 26 26 27 25 26 27 27 27 27 27 29 31 33 33 32 26 20 25 28 26 22 22 27 27 22 14 16 24 25 24 25 26 26 24 22 20 21 21 20 26 31 33 35 36 36 39 43 46 46 43 41 38 34 29 26 25 25 24 21 24 25 26 27 25 27 32 33 33 33 32 30 26 30 39 40 35 31 29 26 20 17 17 18 20 20
29 28 28 27 27 27 26 26 26 27 28 27 28 30 33 36 37 38 34 28 27 26 24 20 20 25 24 21 19 21 23 27 29 25 26 28 29 28 27 27 29 29 29 30 31 32 34 38 45 50 46 40 39 39 35 32 31 28 24 25 25 24 25 27 27 26 24 27 32 35 35 33 33 32 27 32 41 42 38 35 30 25 21 18 17 17 19 19
29 29 29 28 27 26 26 26 25 26 26 26 26 26 28 30 31 34 37 38 30 18 18 19 17 18 17 17 18 25 28 28 29 28 28 29 32 35 34 33 37 36 32 29 30 31 34 42 48 46 41 35 32 34 35 33 32 31 26 26 29 29 28 29 29 26 24 27 30 34 37 37 36 36 32 32 37 38 36 33 27 24 23 20 17 17 19 20
29 28 28 27 26 25 25 24 23 24 23 23 22 21 23 23 25 28 32 39 30 15 16 19 17 12 8 15 17 29 35 31 29 30 32 32 32 34 35 39 41 38 36 35 36 36 38 44 46 41 37 34 31 30 33 34 33 33 31 30 33 33 30 31 33 29 25 27 30 33 39 41 38 37 38 32 29 32 33 31 28 25 24 21 17 17 19 22
29 27 26 26 25 23 24 22 21 22 22 22 20 19 21 19 22 26 28 34 26 15 17 16 14 14 7 5 17 31 36 33 31 32 34 33 32 31 34 41 42 40 40 40 39 41 43 39 35 39 39 34 32 31 30 32 35 36 36 35 36 35 34 35 35 29 23 21 26 33 36 36 38 40 42 37 32 35 34 33 34 28 25 22 18 18 20 21
29 28 26 26 25 22 22 22 20 21 20 21 19 18 19 17 21 25 26 30 24 16 16 14 12 14 14 6 12 24 31 36 34 31 33 34 32 31 34 39 43 45 42 39 39 42 44 35 22 28 40 38 34 34 34 33 35 38 40 41 39 37 37 37 34 28 24 20 22 28 27 22 38 48 45 43 42 42 38 36 38 32 28 28 22 20 21 21
29 28 27 27 27 24 22 22 21 20 19 19 19 18 18 17 19 22 24 23 17 15 14 12 12 12 12 12 6 12 21 32 35 33 33 33 33 31 31 38 44 46 42 36 37 41 44 38 23 17 29 39 38 36 37 35 35 39 43 44 41 38 38 38 33 23 21 21 20 26 29 19 33 50 47 46 47 45 43 39 38 35 32 31 25 22 23 23
29 28 27 26 28 27 24 24 23 22 21 18 18 18 18 17 16 19 20 12 9 15 14 12 15 14 11 14 12 9 7 11 21 34 37 33 34 33 33 37 40 42 40 33 33 41 42 40 34 24 23 34 41 41 39 38 38 40 41 41 41 40 39 38 34 25 23 24 22 24 37 27 28 46 50 50 50 47 47 44 39 40 37 32 28 25 25 25
29 29 28 26 26 28 26 26 24 23 22 20 19 18 18 17 14 15 11 3 7 18 17 15 17 16 12 11 12 8 4 5 9 20 32 35 34 35 37 38 37 37 38 36 38 41 39 40 40 35 30 34 41 43 40 38 41 41 34 33 38 40 40 39 35 31 29 26 23 23 28 20 19 41 49 50 55 53 48 46 43 43 41 34 31 29 27 26
29 29 28 26 25 26 28 27 25 24 22 22 20 18 17 14 12 10 4 1 10 19 21 21 20 18 18 7 8 10 10 8 10 8 17 33 38 36 37 38 36 34 34 38 41 36 32 35 37 37 38 38 36 37 38 38 39 39 31 25 28 32 39 41 34 35 34 22 23 29 24 14 13 33 45 47 56 56 48 45 43 43 41 36 34 31 29 28
30 28 28 26 24 24 25 24 23 22 21 20 18 16 15 12 9 5 1 3 14 20 23 24 21 19 17 10 6 11 17 12 13 14 15 28 39 38 34 33 34 35 35 36 39 38 31 27 28 35 40 40 34 30 34 37 35 34 31 27 27 27 33 37 33 35 28 14 24 36 29 18 11 23 42 48 50 50 47 45 44 43 40 38 37 33 31 30
31 29 28 27 25 24 23 19 18 19 18 17 16 15 13 8 5 1 2 8 15 19 21 22 24 20 14 16 21 20 18 14 13 13 11 18 32 41 34 28 32 36 35 35 36 39 36 28 27 31 33 36 37 31 30 33 34 32 30 30 30 26 27 30 32 31 15 6 24 37 31 24 15 18 36 47 47 45 44 46 45 44 43 41 40 36 33 30
32 29 28 26 25 25 24 19 17 17 16 15 15 15 11 5 4 2 6 13 11 15 23 25 30 28 22 23 24 24 23 17 16 11 3 6 20 39 39 31 32 34 35 37 32 31 39 41 34 28 27 31 37 36 30 30 36 36 33 32 25 16 14 15 16 15 6 8 26 32 24 22 22 25 31 38 45 46 44 44 42 42 43 43 42 40 37 32
33 30 27 25 24 25 23 19 17 16 15 14 14 14 8 4 5 6 13 15 11 17 27 28 32 33 30 28 24 26 27 17 13 13 4 2 9 27 40 40 33 29 31 35 29 24 31 39 41 36 31 31 37 41 37 34 39 41 38 37 25 9 6 6 5 5 5 14 30 31 20 15 19 27 31 32 38 45 47 46 43 39 38 41 42 41 40 37
33 31 26 23 23 23 23 19 17 16 15 16 14 10 6 5 4 10 14 17 19 24 28 29 33 30 25 22 22 26 24 16 17 19 13 7 5 2 19 37 38 34 32 31 29 28 23 25 38 46 39 33 35 41 41 36 38 42 40 39 34 23 14 7 4 4 4 9 24 29 17 10 14 23 32 32 30 36 42 44 44 43 39 39 41 41 40 38
32 31 25 22 22 21 21 19 18 18 16 15 13 10 8 6 9 12 16 19 23 27 27 27 27 23 20 18 19 22 20 22 29 24 17 17 15 18 10 13 24 25 23 21 26 29 27 27 34 37 36 35 33 35 40 36 34 39 41 38 40 39 26 9 3 7 7 5 13 24 14 7 11 16 25 32 31 32 32 32 39 47 46 43 43 42 37 35
30 30 26 22 21 19 19 17 17 17 13 12 11 11 10 7 9 11 15 18 21 25 28 25 21 19 21 22 22 23 23 26 31 28 22 21 16 17 15 10 8 6 7 3 15 18 21 30 31 25 29 37 36 33 37 39 34 36 42 43 43 43 33 16 5 8 11 5 8 21 19 13 14 14 19 29 33 35 32 26 29 40 46 47 47 43 37 34
29 28 24 19 17 19 19 15 12 9 7 9 9 8 8 6 7 9 12 16 18 21 23 20 19 18 19 22 23 25 27 26 26 26 28 24 16 16 14 10 11 14 14 1 13 14 13 23 27 25 28 36 38 33 34 40 37 35 43 47 41 34 32 25 11 4 7 5 6 17 22 21 19 19 22 28 30 33 35 32 28 30 38 46 49 45 40 37
29 26 19 15 18 23 22 17 12 6 5 8 8 7 7 6 10 11 13 15 14 16 17 15 16 16 17 21 21 22 24 24 24 26 28 24 15 17 18 10 10 13 11 3 6 10 11 15 22 30 29 31 36 36 36 40 42 39 40 43 38 28 27 28 17 5 6 4 2 10 20 24 24 25 26 30 35 36 35 36 33 30 31 39 46 45 41 41
29 22 13 17 23 24 22 19 14 7 6 9 9 8 8 9 11 12 14 16 12 12 14 14 16 16 16 19 19 18 20 22 24 22 19 19 17 21 24 15 7 11 13 11 5 8 10 7 15 32 30 27 34 41 43 43 46 45 37 37 42 36 30 31 23 12 8 4 3 6 9 19 30 34 32 34 40 42 40 40 39 36 33 33 39 41 40 39
29 22 14 20 25 22 20 18 12 6 7 10 9 8 8 8 9 10 12 14 13 11 11 13 15 14 15 17 15 16 17 20 22 17 14 18 20 23 21 16 13 12 12 15 14 6 5 4 13 33 31 23 30 42 49 48 47 47 40 37 43 38 30 30 27 22 13 3 4 5 4 17 31 34 35 34 31 34 41 44 43 42 41 37 34 36 38 36
30 27 21 23 23 19 18 14 7 2 5 10 9 7 7 7 8 11 11 14 15 13 10 12 14 13 14 15 15 17 17 19 19 16 17 19 19 21 19 20 27 22 13 13 16 14 11 9 12 31 32 25 27 36 47 50 45 44 42 39 42 38 30 22 16 25 25 11 6 6 4 19 28 24 27 29 25 26 35 43 43 42 43 40 36 34 36 36
31 30 27 27 25 20 18 12 6 5 2 7 7 7 9 7 8 12 13 15 16 12 10 11 12 13 13 14 17 19 16 17 17 17 20 21 20 23 26 28 32 27 22 19 16 19 19 12 12 29 36 33 30 28 35 46 45 42 41 40 41 40 39 27 13 22 31 23 18 11 5 17 22 15 16 21 24 27 30 37 41 41 40 38 36 34 33 32
33 30 28 28 26 22 17 10 8 9 3 2 3 7 10 6 6 12 13 12 13 12 11 11 12 13 14 15 17 17 16 15 15 16 18 21 23 25 27 29 29 27 25 22 19 19 14 8 10 21 31 36 37 30 26 35 43 43 41 41 41 40 44 40 28 28 29 26 24 11 5 17 21 14 16 20 23 29 28 31 37 41 41 37 36 37 34 29
36 32 30 29 26 20 14 7 7 10 8 6 7 9 9 5 4 12 12 10 12 12 11 12 13 14 15 15 13 14 16 13 13 17 18 19 24 26 28 30 28 26 24 21 23 23 13 11 17 15 14 20 27 25 21 25 36 43 43 43 44 44 44 41 34 30 25 28 30 13 6 22 20 9 18 22 21 27 27 27 32 38 40 36 35 39 37 30
37 35 33 30 22 14 8 5 5 8 11 11 10 10 9 7 6 8 8 9 10 9 10 13 14 14 14 13 12 13 15 13 15 19 20 21 25 26 28 29 27 26 24 23 24 21 19 21 17 10 5 6 9 11 11 13 21 36 46 47 45 44 44 39 33 27 21 26 34 23 18 30 24 11 16 14 15 22 26 27 29 34 36 32 32 38 37 30
37 37 37 31 16 8 6 5 7 8 11 12 11 10 10 9 8 6 7 9 9 8 9 12 13 14 15 15 15 15 14 14 17 19 20 24 25 25 27 28 27 25 22 21 20 18 21 21 12 11 13 15 18 14 10 6 12 22 39 49 47 41 42 42 34 30 26 26 32 33 32 36 33 21 12 5 16 23 28 30 28 30 31 28 28 33 35 31
34 35 40 34 17 8 7 7 8 8 8 10 10 9 9 10 10 10 9 8 8 7 10 12 13 15 16 15 16 17 16 16 18 19 21 24 25 24 25 25 26 25 22 21 19 17 21 18 9 11 17 21 25 22 16 11 14 15 26 44 49 41 40 43 38 33 30 24 25 30 33 36 37 25 9 10 19 22 27 31 27 25 28 28 28 30 32 31
32 32 36 33 21 14 13 8 6 6 5 6 5 4 7 9 11 12 10 7 6 7 12 14 14 14 14 15 16 18 18 18 19 19 21 24 25 25 25 24 23 25 26 24 17 15 20 17 14 20 19 18 23 25 20 15 13 14 20 37 50 45 41 42 40 36 32 27 24 26 27 31 32 22 12 13 19 24 27 27 22 23 27 30 30 30 29 29
33 33 34 30 20 15 15 13 10 8 7 6 3 2 4 7 9 10 10 10 10 9 12 14 15 16 15 14 15 16 18 19 19 20 21 24 25 26 27 24 19 21 24 23 16 12 17 16 17 27 20 12 18 18 16 12 11 12 20 36 48 47 44 42 40 37 34 31 29 26 25 26 25 21 19 17 20 27 28 24 21 23 26 29 32 33 29 28
33 34 34 30 21 13 12 13 12 9 7 6 5 5 7 9 11 12 12 13 14 12 11 12 15 18 18 15 13 15 17 16 15 17 19 21 24 25 26 25 18 18 21 19 15 12 16 18 20 29 20 6 9 11 13 7 9 6 21 38 47 47 46 43 40 37 35 34 31 27 26 26 23 23 24 20 18 24 28 28 26 24 24 27 32 32 28 28
33 33 31 28 22 15 13 13 12 11 9 7 7 10 11 12 15 17 13 9 10 11 12 14 16 18 20 19 16 16 17 15 14 15 15 17 21 24 24 22 18 17 20 21 18 15 18 22 22 28 22 4 2 9 15 7 5 4 13 25 42 48 46 43 39 37 34 32 33 32 28 24 26 26 21 16 16 21 28 30 27 23 25 28 31 32 29 28
33 32 29 26 22 17 13 13 13 12 11 9 9 13 15 16 16 17 13 8 7 10 13 14 15 17 19 18 17 18 19 18 18 18 16 16 19 22 24 21 16 15 19 23 24 20 19 22 22 25 21 9 4 6 13 6 1 8 11 1 23 38 43 42 35 32 31 28 29 33 29 23 24 25 21 22 24 24 27 27 23 23 25 26 29 32 29 27
Wind_Direction
326 324 322 321 318 317 315 314 313 312 312 310 309 307 304 301 299 297 295 296 296 295 293 291 291 291 289 287 283 279 274 270 264 254 241 209 209 219 216 218 223 212 203 206 206 201 201 200 200 202 200 203 201 196 197 192 195 205 214 246 203 138 87 69 66 8 327 127 145 148 138 163 169 157 156 165 183 207 166 146 139 153 120 158 193 182 168 167
327 325 323 321 319 317 316 314 313 312 311 310 309 307 305 303 300 297 295 293 292 291 291 290 288 289 289 289 287 282 278 275 272 262 233 206 209 215 214 214 222 217 204 207 208 203 202 202 202 202 203 203 199 201 204 199 198 201 220 233 164 123 82 61 48 50 329 117 127 136 140 161 165 155 159 166 181 197 181 171 185 201 176 170 190 183 173 172
326 325 323 321 319 318 316 314 313 311 309 308 308 307 305 303 301 299 296 293 290 287 288 288 287 286 287 289 289 285 281 279 279 264 234 219 213 215 214 211 219 219 207 205 206 205 203 203 204 203 203 199 198 206 203 200 197 193 226 226 134 100 72 66 48 98 114 117 155 158 146 154 158 152 160 171 174 193 193 182 199 218 195 178 185 184 179 176
326 325 323 321 320 318 316 314 312 310 308 307 306 305 303 302 301 300 297 295 290 286 284 284 286 284 285 287 287 287 284 285 283 266 239 227 219 215 211 207 212 213 206 202 200 201 200 202 203 202 204 196 193 203 199 196 193 190 205 179 114 80 61 82 88 136 120 159 175 162 155 166 165 154 166 181 175 196 215 218 258 242 194 184 182 185 185 180
329 327 325 323 321 319 318 315 313 310 308 306 304 303 301 299 298 297 297 295 291 287 283 281 282 282 283 282 284 286 286 289 287 272 243 231 225 219 212 207 208 209 204 202 198 195 196 200 199 198 201 195 192 199 201 196 187 198 199 149 121 88 69 98 112 152 112 167 169 152 164 180 186 168 176 197 202 222 241 231 247 270 202 195 185 184 188 185
332 331 329 326 324 322 320 317 315 312 309 307 305 302 300 298 296 295 295 294 292 289 284 281 279 278 280 279 280 279 280 288 280 264 248 232 226 223 218 209 205 206 205 203 198 195 195 198 198 198 196 194 196 198 198 192 185 203 206 168 144 148 137 110 152 202 205 189 163 152 166 182 196 185 192 213 229 249 263 232 222 227 219 207 188 184 187 187
338 337 335 332 330 328 325 322 319 315 311 308 306 303 300 297 294 293 291 291 291 289 285 283 279 276 275 276 276 274 277 281 267 257 248 230 220 216 217 212 205 206 208 205 201 197 195 198 201 199 195 194 196 195 193 187 189 206 207 196 192 210 240 241 239 221 219 192 158 157 177 193 194 188 200 214 227 236 232 223 205 205 203 196 192 188 186 187
348 347 345 342 339 336 333 330 326 321 316 312 309 305 301 298 294 292 290 289 288 287 285 282 280 277 273 271 271 273 275 272 265 257 244 231 217 208 210 213 211 210 212 211 208 203 198 201 203 199 197 196 197 196 187 184 197 210 202 196 216 235 252 252 239 219 216 203 176 185 218 197 188 191 197 204 218 229 229 219 202 207 199 190 193 191 185 185
353 352 350 347 345 343 340 337 334 329 324 319 314 309 304 299 294 291 288 286 285 284 282 280 279 277 272 268 267 272 274 268 265 255 242 229 216 210 210 213 216 214 212 212 210 207 204 204 203 202 201 194 196 196 182 187 201 202 188 189 213 227 233 235 232 217 226 223 196 203 222 184 187 207 194 196 215 227 230 220 203 210 205 192 194 193 187 184
352 351 350 349 347 345 344 342 339 336 332 328 323 316 310 303 297 292 288 285 283 281 280 279 277 274 272 267 265 270 269 264 263 253 240 225 218 216 212 213 216 214 211 211 209 207 207 206 203 204 202 192 192 192 185 194 202 199 204 217 227 237 236 232 235 226 236 227 195 191 200 181 193 213 194 195 213 223 225 212 203 215 213 198 194 194 189 186
349 349 349 349 348 347 347 345 343 341 338 335 331 324 318 311 303 295 289 285 282 280 278 277 275 273 270 265 266 267 253 251 254 247 230 213 210 215 218 216 212 211 211 211 211 211 208 204 201 200 198 195 192 191 193 199 204 206 220 239 242 247 248 243 245 236 231 222 199 193 191 184 193 202 195 200 207 214 219 206 203 214 213 203 196 195 192 189
346 345 346 348 349 349 349 348 348 346 345 343 338 332 325 319 313 304 296 288 283 278 275 274 273 271 268 263 265 258 240 239 240 238 235 224 212 207 212 218 212 207 208 210 209 209 206 198 197 198 195 195 196 197 198 198 207 214 226 245 244 247 251 246 245 240 234 227 207 196 193 195 200 200 203 209 205 209 218 208 203 206 203 200 196 195 195 191
342 342 343 345 347 349 350 349 350 350 350 349 343 338 332 326 321 313 304 295 286 279 274 271 269 269 267 261 247 227 231 232 233 234 238 240 238 226 212 211 212 205 202 206 204 203 202 193 196 199 191 190 197 202 201 197 210 226 233 245 249 251 253 246 240 236 231 227 214 203 206 206 203 210 219 212 206 208 215 210 200 196 194 196 196 195 196 193
340 340 340 342 343 346 347 345 348 349 350 350 347 343 339 335 329 321 312 302 292 282 275 270 267 266 266 262 242 229 229 230 237 239 240 241 244 244 225 209 208 206 200 197 194 196 195 188 194 199 190 187 190 202 217 213 220 233 238 244 249 252 254 250 236 226 219 216 213 212 220 208 190 210 226 209 208 212 215 211 199 192 190 192 196 195 195 196
340 338 338 338 338 340 342 339 341 345 347 349 347 345 343 339 334 327 320 312 300 286 277 271 267 264 265 265 253 240 234 234 244 249 252 248 238 242 234 209 200 204 199 191 191 191 186 184 192 195 192 190 190 206 224 227 226 229 240 243 242 248 252 249 228 217 218 215 207 208 221 212 192 207 219 208 211 221 223 217 203 197 193 189 192 194 196 196
337 335 333 332 331 332 335 333 334 340 343 345 346 344 342 339 336 332 327 321 309 295 284 275 269 265 265 268 261 246 238 233 236 239 243 245 235 231 221 194 188 196 195 188 191 189 181 185 195 197 194 196 200 212 225 234 233 226 235 241 236 244 247 240 222 216 226 218 203 208 218 215 211 212 215 215 219 226 227 220 211 204 198 193 191 192 195 194
335 334 331 329 328 327 330 328 328 335 338 340 342 342 340 338 336 332 328 325 319 310 296 284 275 267 263 264 258 245 237 225 214 216 226 235 231 221 211 190 180 191 193 186 189 190 184 188 198 200 198 200 204 213 226 234 232 225 229 234 230 240 242 232 220 215 225 220 209 218 223 219 220 212 211 222 227 226 220 217 217 210 203 197 192 193 197 196
335 334 331 330 328 326 327 325 325 329 334 336 338 339 340 338 332 326 322 323 324 322 312 302 288 275 265 256 247 238 234 225 215 212 212 218 222 219 219 202 182 188 191 186 189 189 187 191 198 203 204 204 204 209 219 222 221 219 222 226 226 237 241 230 225 217 220 224 215 218 223 219 219 213 212 223 228 222 214 217 224 216 207 201 194 197 202 200
333 332 331 330 330 328 327 325 325 326 330 334 335 336 335 329 323 320 323 329 333 333 323 312 295 280 265 248 242 234 227 222 221 218 210 206 209 217 223 205 189 194 192 190 192 188 188 192 197 205 208 205 202 205 213 215 215 219 219 220 224 232 236 227 226 223 218 223 218 216 222 221 217 216 213 216 219 216 212 219 226 217 212 209 200 200 206 204
332 331 330 328 329 329 326 326 325 325 327 330 332 333 331 329 326 325 325 334 346 338 323 311 293 280 268 252 239 232 227 221 221 219 209 201 199 210 219 203 198 208 203 195 194 189 188 195 201 206 207 205 204 204 211 216 214 219 223 222 221 227 231 222 222 226 221 224 222 220 225 222 217 219 214 208 207 208 211 221 222 214 212 217 212 205 206 208
332 331 329 327 327 328 326 325 325 325 326 329 334 336 338 341 338 335 327 332 352 340 319 319 298 283 280 266 240 230 230 222 221 216 206 197 192 204 213 202 199 209 209 200 195 190 191 202 209 210 207 207 211 208 210 216 215 218 222 221 222 224 226 223 224 226 225 228 227 225 226 221 218 220 213 204 203 205 213 220 218 211 212 221 222 212 206 206
332 331 329 326 326 327 325 324 324 324 324 328 333 335 340 343 341 340 332 334 352 350 332 345 326 296 280 264 230 221 227 221 217 211 201 194 190 201 209 203 201 206 210 205 198 195 200 212 215 211 208 209 215 215 213 213 216 219 219 223 228 226 229 236 235 229 228 231 231 229 224 220 221 220 213 206 207 210 212 215 218 217 218 220 218 211 207 203
333 331 330 326 325 326 324 323 323 321 321 325 329 331 336 339 335 335 332 336 351 4 358 8 4 347 270 246 217 213 223 219 213 206 199 198 195 198 204 203 201 203 210 209 201 197 205 218 219 209 207 209 212 217 216 215 217 220 219 224 229 225 231 241 235 231 234 230 235 236 224 218 218 214 210 211 214 211 209 213 222 230 231 223 215 210 207 203
333 332 332 327 326 328 323 321 322 320 320 322 325 329 333 335 331 329 331 339 350 3 3 12 14 20 34 241 215 216 222 216 211 205 201 206 202 198 202 204 202 201 208 212 207 203 208 219 221 211 208 208 210 213 215 217 219 220 218 220 225 221 223 233 232 237 246 241 242 233 216 210 207 199 201 208 213 209 208 212 215 225 234 227 217 212 209 207
333 333 333 329 327 329 325 323 324 321 320 322 323 328 329 329 329 329 333 342 351 355 352 1 8 17 26 6 219 221 226 217 208 199 200 208 205 200 202 204 205 205 206 211 213 213 215 218 219 214 210 208 209 211 211 213 217 220 217 213 216 216 219 232 241 251 258 262 255 224 201 201 202 196 197 202 205 205 208 212 213 220 227 222 216 211 212 210
334 332 334 332 327 329 329 326 326 323 322 324 323 326 325 324 329 332 335 342 351 348 337 336 348 357 5 355 295 243 237 226 213 198 197 204 203 203 204 205 208 209 207 208 215 222 222 219 215 217 216 210 209 212 211 210 214 221 218 209 210 217 224 235 245 256 258 263 265 223 202 199 198 198 201 201 201 204 208 213 217 221 220 218 218 216 215 211
334 332 335 334 328 328 329 329 329 326 323 324 323 322 320 323 334 335 334 341 340 337 329 312 328 341 353 356 330 285 260 252 227 207 202 200 198 202 208 211 211 211 209 206 216 225 224 221 216 216 225 215 210 213 211 208 212 221 221 213 213 221 226 234 242 251 253 257 273 234 206 199 196 200 204 202 200 202 207 213 220 223 219 218 221 222 220 216
334 331 333 334 330 326 327 330 329 324 322 323 322 316 315 326 340 335 335 354 321 331 329 301 305 315 320 352 358 337 352 332 270 220 210 205 197 200 209 214 215 213 209 207 217 224 223 222 216 212 221 220 214 214 211 208 213 220 222 218 221 224 225 234 243 248 253 258 273 254 219 211 204 203 205 203 201 202 207 214 220 221 219 218 220 223 224 223
334 332 333 335 333 327 327 329 327 324 323 324 322 312 313 332 342 329 323 262 310 324 323 304 292 290 293 317 53 27 356 297 271 261 224 211 203 203 209 213 217 218 213 214 221 225 224 225 221 214 218 222 222 219 212 210 216 219 220 220 223 226 228 236 245 248 252 255 259 258 242 237 228 208 205 201 201 205 211 218 220 220 221 221 222 224 227 225
335 336 335 336 336 330 327 326 322 321 321 321 317 311 323 339 335 326 150 302 314 316 314 308 303 295 295 318 8 357 351 327 272 266 240 215 206 205 210 213 217 221 220 222 226 227 227 229 229 223 221 221 224 226 218 213 216 220 221 218 223 227 229 238 245 244 248 247 246 253 246 237 245 216 207 204 207 213 217 220 219 220 222 223 224 228 231 228
336 338 335 336 338 331 330 328 317 315 318 314 307 313 332 339 330 100 165 303 311 310 310 315 317 306 300 336 345 334 332 334 310 282 245 219 211 208 209 212 216 220 223 228 229 228 227 227 227 229 228 222 221 227 225 218 214 216 217 217 223 231 232 237 241 236 234 228 241 249 245 233 238 229 212 209 215 220 221 221 219 219 222 222 224 228 231 231
337 340 338 339 338 334 337 334 317 314 318 316 314 322 333 351 26 36 304 309 312 319 324 325 322 315 313 328 335 335 329 322 332 334 263 228 222 214 211 210 214 216 221 227 229 227 227 227 225 227 232 225 218 220 222 219 215 213 214 214 217 226 228 231 236 230 214 228 241 245 242 230 235 243 231 215 216 220 223 226 224 222 223 224 225 227 228 229
339 343 344 343 340 339 343 337 322 318 321 330 336 333 342 57 51 339 318 321 316 319 322 318 314 316 324 325 316 325 330 321 340 359 352 258 231 219 214 211 214 217 221 227 227 225 227 229 227 224 228 226 217 216 214 211 212 211 210 211 208 198 207 221 229 230 215 229 238 241 237 226 228 241 240 224 218 220 222 226 227 226 226 225 226 227 227 227
341 345 347 347 345 345 349 348 339 333 336 347 345 339 13 52 341 318 323 321 314 314 316 314 315 322 336 330 318 328 329 322 338 353 6 18 30 309 225 216 217 224 228 228 226 224 224 227 225 221 223 224 219 217 214 211 211 211 208 210 213 210 203 203 201 204 196 214 231 235 231 207 211 232 237 230 222 220 222 226 228 229 229 227 227 227 228 228
344 346 346 345 346 348 354 359 359 354 351 354 357 8 26 0 323 332 332 324 324 325 326 327 328 338 348 328 324 337 325 322 329 328 349 13 23 21 10 205 211 230 238 234 228 229 231 233 231 225 222 223 223 219 215 213 213 211 207 209 217 218 212 209 230 209 186 159 221 230 228 197 208 233 236 231 229 226 227 232 231 229 230 230 228 225 225 228
347 346 342 342 345 348 352 359 6 3 351 349 7 24 20 350 333 345 337 327 332 334 337 344 345 349 350 334 334 336 314 314 324 314 320 348 3 7 21 85 101 46 40 271 232 228 239 241 237 233 228 223 223 222 214 211 212 207 205 210 216 219 218 217 233 211 194 175 219 228 237 240 231 236 230 228 233 232 231 234 231 229 229 228 227 225 224 226
351 347 339 337 340 338 340 349 358 1 341 336 352 360 4 0 331 328 327 322 328 335 339 348 350 347 345 339 340 336 319 313 321 319 320 329 340 344 359 53 50 47 67 90 229 218 251 255 236 226 231 225 218 221 219 214 214 206 204 209 210 215 223 224 225 204 191 208 217 217 232 243 239 239 233 225 228 231 231 232 234 231 228 225 225 226 227 227
355 350 333 323 327 326 330 336 335 342 334 324 334 336 330 321 306 305 312 316 324 338 341 344 343 341 340 339 338 337 332 325 327 331 327 322 327 336 341 3 21 33 56 57 225 229 273 276 229 211 221 226 215 216 222 218 216 214 211 209 202 201 213 215 216 210 185 202 238 214 224 233 234 236 238 232 229 229 229 229 233 234 227 221 222 225 229 229
355 352 315 304 320 321 325 325 311 309 325 317 324 331 318 304 304 310 310 309 318 337 344 344 335 334 338 334 336 341 337 328 333 340 332 321 321 322 321 318 345 31 35 28 7 267 276 306 237 213 213 225 216 213 219 217 214 217 217 209 204 206 208 206 209 207 185 181 225 217 216 229 234 236 239 239 234 231 231 229 230 233 229 221 218 221 226 229
353 354 320 312 325 323 324 323 300 293 338 330 319 316 320 314 309 323 321 308 310 320 334 341 334 334 336 330 335 343 334 328 334 339 325 315 314 310 304 302 319 351 9 14 16 318 264 351 252 225 220 232 221 211 215 214 209 210 209 201 201 206 207 208 214 211 200 166 182 194 228 235 235 236 236 239 237 231 229 228 227 228 229 227 222 220 223 226
353 356 343 330 330 319 313 314 289 231 8 349 335 316 322 331 325 331 324 307 308 308 310 329 332 329 330 331 334 334 332 332 329 323 315 309 311 304 289 295 314 322 331 351 13 7 336 332 262 237 240 248 230 216 215 215 211 208 206 202 201 199 194 196 212 212 210 214 199 180 226 240 238 238 234 236 238 229 220 220 222 222 225 227 225 220 221 225
355 359 352 338 334 323 305 292 251 185 95 4 341 305 300 317 349 343 317 303 313 316 308 318 324 320 319 323 328 329 332 328 315 311 311 303 303 300 291 297 305 306 315 319 334 351 340 326 274 248 246 241 227 221 219 218 217 214 210 208 206 201 196 195 196 202 206 218 228 218 243 245 236 234 244 245 241 233 221 218 219 219 221 222 219 216 218 225
353 359 356 343 338 332 313 283 226 205 202 329 273 281 293 292 350 343 320 311 328 334 327 323 322 322 322 323 328 332 332 319 305 308 311 303 304 301 296 301 298 293 306 312 317 338 347 348 313 269 252 241 232 232 231 221 217 217 214 210 208 205 204 206 207 202 201 211 223 225 275 243 220 217 260 265 246 234 226 219 219 218 219 220 217 216 216 220
350 354 0 353 343 338 322 289 230 223 245 276 267 286 296 261 303 330 327 331 338 339 337 331 323 319 322 327 331 332 328 318 305 311 315 311 308 306 301 299 295 293 301 309 321 330 331 334 334 311 271 248 238 241 248 234 219 216 214 210 210 209 206 208 209 206 204 211 214 209 250 237 220 234 277 270 243 226 213 207 214 216 215 218 221 218 214 215
347 348 360 0 349 346 340 304 271 257 267 284 288 298 303 280 284 315 329 329 320 321 333 332 322 315 319 327 327 323 322 321 317 316 319 317 310 308 306 298 289 288 290 300 315 318 311 312 313 300 263 232 237 237 234 237 227 217 213 211 212 208 204 204 202 198 201 212 213 213 232 234 229 263 292 267 215 200 188 188 204 211 212 215 220 217 211 210
347 345 354 2 3 6 353 293 281 287 285 290 289 294 310 308 299 304 319 314 295 290 318 324 318 317 322 328 326 320 317 319 320 316 314 315 311 310 310 299 287 285 287 296 302 304 311 309 287 264 262 263 275 260 213 247 268 230 214 211 210 208 204 205 202 198 202 207 210 215 228 235 238 253 281 207 168 174 177 184 196 207 213 215 213 210 208 208
347 346 350 357 2 358 336 284 268 286 293 293 290 298 316 319 319 317 308 302 299 309 324 320 319 327 332 332 326 319 316 318 319 318 316 314 311 312 312 299 286 282 279 281 289 302 311 312 316 305 282 270 271 253 227 262 284 257 228 212 207 207 204 204 205 203 204 203 207 214 223 236 242 246 242 167 168 175 180 185 193 204 212 213 208 204 204 207
346 347 349 353 353 348 345 331 306 313 324 317 314 352 354 333 325 321 309 295 294 321 333 324 318 325 330 331 327 320 320 323 320 318 321 321 318 318 316 303 284 273 267 267 278 305 309 311 338 333 300 253 239 233 237 268 281 274 247 213 205 207 205 205 207 206 205 207 211 213 219 233 240 235 217 191 185 185 183 184 191 198 204 209 208 202 201 206
343 345 348 350 353 354 349 342 332 336 359 359 350 28 350 316 303 304 308 310 306 319 335 324 312 311 314 321 325 319 317 320 318 317 321 324 324 325 324 313 283 258 259 261 264 298 315 316 337 340 322 236 220 238 248 268 287 271 231 207 202 207 209 208 210 209 210 214 219 218 218 228 234 227 223 218 198 190 189 187 188 191 195 204 207 204 203 204
342 345 346 347 352 360 349 341 336 333 347 350 323 306 295 290 295 298 302 314 318 325 328 311 301 304 310 316 317 312 312 311 310 315 318 318 318 320 323 319 296 256 246 251 260 290 317 319 336 347 337 221 208 251 229 238 316 263 202 200 200 205 210 212 212 213 214 216 218 221 224 224 221 218 224 228 213 199 195 192 190 190 194 200 203 204 203 199
340 343 345 342 346 357 350 341 338 333 339 343 321 311 300 296 309 315 312 310 317 326 324 311 302 300 307 316 316 314 313 305 298 300 302 304 306 305 307 312 308 276 248 247 260 279 305 316 341 352 338 302 179 250 224 228 332 132 167 195 199 201 207 211 212 214 217 219 217 221 228 218 203 207 212 206 197 194 191 190 187 190 199 202 201 199 195 194
337 340 344 340 340 351 350 342 341 338 340 340 325 315 309 311 323 329 327 325 328 336 337 329 317 306 306 314 318 315 308 297 294 296 292 292 294 291 292 298 307 294 267 256 261 273 297 314 339 352 336 326 9 248 220 216 77 85 54 117 193 198 206 209 211 212 214 218 217 220 228 218 200 201 185 157 158 169 176 181 185 190 196 197 196 195 194 195
Height
3154 3153 3151 3150 3149 3148 3147 3146 3145 3144 3143 3142 3141 3141 3140 3139 3138 3138 3137 3137 3136 3135 3135 3135 3135 3134 3134 3134 3135 3135 3135 3135 3134 3135 3137 3139 3139 3138 3139 3141 3141 3143 3145 3146 3148 3150 3153 3155 3156 3158 3159 3160 3161 3162 3163 3164 3163 3164 3164 3165 3165 3165 3166 3168 3169 3170 3169 3168 3168 3170 3171 3171 3170 3171 3172 3172 3172 3175 3175 3174 3174 3174 3174 3175 3177 3178 3178 3179
3153 3151 3150 3149 3148 3147 3146 3145 3143 3142 3141 3140 3140 3139 3138 3137 3136 3136 3136 3135 3134 3133 3133 3133 3133 3133 3132 3132 3133 3133 3133 3133 3133 3134 3135 3134 3134 3135 3137 3139 3140 3141 3144 3145 3147 3150 3152 3154 3155 3156 3158 3159 3161 3161 3161 3162 3162 3162 3163 3164 3164 3164 3166 3167 3168 3170 3169 3168 3168 3170 3171 3170 3170 3171 3171 3171 3172 3174 3174 3173 3173 3173 3173 3175 3177 3178 3178 3179
3151 3150 3149 3148 3147 3145 3144 3143 3142 3141 3140 3139 3138 3137 3136 3135 3134 3134 3134 3133 3132 3132 3131 3131 3131 3131 3131 3131 3131 3131 3131 3131 3131 3132 3132 3131 3132 3134 3136 3137 3138 3140 3142 3144 3146 3149 3151 3153 3154 3155 3156 3158 3159 3160 3160 3161 3161 3162 3162 3163 3163 3164 3165 3166 3167 3169 3169 3168 3168 3169 3170 3170 3171 3171 3171 3172 3173 3173 3172 3171 3172 3172 3173 3174 3176 3177 3178 3179
3150 3149 3148 3146 3145 3144 3143 3142 3140 3139 3138 3137 3136 3136 3135 3134 3133 3132 3131 3131 3131 3130 3129 3129 3129 3129 3129 3129 3129 3129 3130 3130 3130 3130 3130 3130 3132 3133 3135 3136 3137 3139 3141 3142 3144 3147 3149 3150 3152 3154 3155 3157 3158 3158 3159 3159 3160 3161 3161 3161 3162 3163 3164 3165 3167 3169 3170 3169 3168 3169 3169 3169 3171 3171 3172 3173 3172 3172 3171 3171 3172 3172 3173 3174 3175 3176 3178 3179
3149 3148 3146 3145 3143 3142 3141 3140 3139 3137 3136 3135 3135 3134 3133 3132 3131 3130 3129 3129 3129 3128 3127 3127 3126 3126 3127 3127 3128 3128 3128 3128 3128 3129 3128 3128 3130 3132 3133 3135 3136 3138 3139 3140 3141 3144 3146 3147 3150 3151 3153 3155 3156 3157 3157 3158 3159 3160 3160 3161 3161 3162 3164 3165 3167 3169 3170 3170 3169 3169 3169 3169 3171 3171 3172 3173 3171 3171 3171 3172 3173 3173 3174 3174 3175 3176 3178 3179
3147 3146 3145 3143 3142 3140 3139 3138 3137 3135 3134 3133 3132 3132 3131 3130 3129 3128 3127 3126 3126 3126 3125 3125 3124 3124 3125 3125 3126 3126 3126 3127 3127 3127 3127 3127 3129 3131 3132 3134 3135 3136 3136 3137 3139 3141 3142 3144 3146 3148 3150 3153 3155 3156 3157 3158 3158 3158 3159 3160 3161 3162 3164 3165 3167 3169 3169 3170 3170 3170 3170 3171 3171 3170 3172 3172 3171 3172 3172 3173 3174 3174 3174 3175 3176 3176 3177 3179
3146 3144 3143 3141 3140 3139 3137 3136 3135 3133 3132 3131 3130 3129 3128 3127 3126 3126 3125 3124 3124 3124 3123 3122 3122 3122 3123 3123 3123 3124 3125 3125 3125 3126 3126 3127 3128 3129 3130 3132 3133 3134 3134 3136 3137 3138 3140 3141 3143 3146 3149 3151 3153 3155 3157 3157 3157 3157 3157 3159 3160 3162 3163 3165 3167 3168 3169 3170 3170 3170 3171 3171 3171 3170 3172 3172 3172 3172 3173 3174 3174 3174 3174 3175 3176 3177 3178 3180
3145 3143 3141 3140 3138 3137 3135 3134 3132 3131 3130 3129 3127 3126 3126 3125 3124 3123 3123 3122 3121 3121 3121 3120 3120 3120 3120 3120 3120 3122 3123 3123 3123 3124 3125 3125 3126 3127 3128 3129 3130 3132 3133 3135 3136 3138 3139 3139 3141 3144 3146 3149 3152 3154 3155 3156 3156 3156 3156 3157 3159 3161 3162 3164 3167 3167 3168 3170 3170 3170 3170 3171 3171 3170 3171 3172 3171 3172 3173 3174 3174 3174 3174 3174 3175 3177 3179 3180
3144 3142 3140 3139 3137 3136 3134 3132 3131 3129 3128 3126 3125 3124 3123 3122 3121 3120 3120 3119 3119 3118 3118 3118 3118 3118 3118 3118 3118 3120 3121 3120 3121 3122 3123 3123 3124 3125 3126 3128 3129 3131 3132 3134 3135 3136 3137 3138 3140 3143 3145 3148 3151 3153 3154 3154 3154 3154 3155 3156 3158 3159 3161 3163 3165 3166 3168 3169 3169 3169 3169 3169 3170 3170 3171 3171 3171 3171 3173 3173 3174 3174 3174 3174 3175 3176 3178 3180
3143 3141 3139 3138 3136 3134 3133 3131 3129 3127 3126 3124 3123 3121 3120 3119 3118 3117 3117 3116 3116 3116 3115 3115 3115 3115 3116 3115 3116 3118 3119 3118 3119 3120 3121 3122 3122 3123 3125 3127 3128 3130 3131 3132 3133 3133 3135 3138 3141 3144 3146 3148 3149 3151 3153 3152 3153 3154 3154 3156 3157 3158 3160 3162 3164 3165 3166 3167 3168 3168 3168 3168 3169 3170 3170 3170 3170 3171 3172 3173 3173 3174 3174 3174 3174 3175 3178 3179
3141 3140 3138 3137 3135 3133 3131 3130 3128 3126 3124 3122 3120 3119 3117 3116 3115 3115 3114 3113 3113 3113 3112 3113 3112 3112 3113 3113 3115 3117 3117 3116 3116 3118 3119 3120 3121 3122 3123 3125 3127 3128 3130 3131 3132 3133 3135 3138 3142 3144 3145 3146 3147 3150 3151 3151 3152 3153 3154 3155 3156 3158 3159 3161 3162 3164 3165 3165 3166 3167 3168 3168 3167 3168 3169 3168 3169 3170 3171 3172 3172 3173 3173 3173 3174 3175 3177 3178
3140 3138 3137 3135 3134 3132 3130 3128 3127 3124 3123 3121 3118 3116 3114 3113 3112 3112 3111 3110 3110 3110 3109 3110 3109 3109 3109 3110 3114 3115 3114 3114 3114 3115 3116 3117 3119 3120 3121 3123 3125 3127 3128 3130 3131 3133 3135 3138 3141 3141 3142 3144 3146 3148 3149 3150 3152 3152 3154 3154 3154 3156 3157 3158 3159 3162 3163 3163 3164 3165 3167 3167 3166 3166 3167 3168 3169 3170 3171 3171 3172 3172 3173 3173 3173 3174 3175 3177
3139 3137 3135 3134 3132 3130 3129 3127 3125 3123 3121 3119 3117 3115 3112 3111 3110 3109 3108 3107 3107 3106 3106 3106 3106 3106 3105 3107 3113 3114 3112 3112 3111 3111 3113 3116 3118 3118 3119 3120 3122 3125 3127 3129 3131 3133 3134 3137 3138 3139 3140 3142 3145 3147 3148 3149 3150 3151 3152 3153 3152 3154 3153 3154 3157 3159 3162 3162 3162 3164 3164 3165 3165 3165 3166 3167 3168 3169 3170 3170 3171 3171 3172 3172 3172 3173 3174 3176
3138 3136 3134 3132 3130 3129 3127 3125 3123 3122 3120 3118 3115 3113 3110 3108 3107 3106 3105 3104 3103 3102 3102 3102 3102 3103 3101 3104 3111 3111 3109 3109 3107 3109 3112 3114 3116 3116 3117 3118 3120 3122 3124 3127 3130 3132 3133 3136 3138 3139 3139 3139 3142 3145 3146 3147 3148 3149 3150 3150 3151 3150 3150 3151 3153 3156 3159 3159 3160 3162 3162 3163 3164 3164 3163 3165 3167 3168 3169 3169 3170 3170 3171 3171 3172 3173 3174 3175
3136 3135 3132 3130 3128 3127 3125 3123 3121 3120 3118 3116 3114 3111 3109 3107 3105 3103 3102 3101 3100 3099 3098 3098 3099 3099 3097 3101 3107 3107 3107 3107 3107 3110 3112 3112 3114 3114 3115 3116 3118 3121 3123 3126 3128 3129 3132 3134 3135 3136 3137 3138 3140 3142 3142 3143 3144 3145 3146 3146 3147 3148 3148 3149 3150 3153 3156 3157 3158 3159 3159 3161 3164 3163 3162 3163 3165 3166 3167 3168 3168 3169 3169 3170 3171 3172 3173 3174
3135 3133 3131 3129 3127 3125 3123 3121 3119 3117 3116 3114 3112 3109 3107 3104 3103 3101 3100 3099 3097 3095 3094 3094 3095 3096 3095 3098 3102 3103 3103 3105 3106 3108 3108 3109 3111 3112 3114 3115 3116 3119 3121 3123 3126 3128 3130 3132 3132 3133 3135 3137 3137 3138 3141 3141 3140 3141 3143 3142 3144 3145 3146 3147 3148 3150 3153 3155 3155 3156 3157 3158 3161 3162 3161 3161 3163 3164 3165 3166 3167 3167 3168 3169 3170 3171 3172 3173
3134 3132 3130 3127 3125 3123 3121 3119 3116 3115 3113 3111 3110 3108 3105 3102 3100 3099 3099 3097 3095 3093 3091 3091 3092 3092 3093 3096 3098 3098 3099 3100 3101 3101 3103 3106 3109 3111 3112 3112 3114 3117 3119 3121 3123 3125 3127 3128 3130 3131 3132 3133 3134 3137 3138 3136 3134 3137 3139 3140 3141 3143 3144 3145 3146 3148 3151 3153 3153 3153 3155 3156 3158 3160 3160 3160 3161 3162 3164 3165 3166 3166 3167 3168 3169 3170 3171 3172
3132 3130 3128 3126 3123 3121 3119 3117 3114 3113 3111 3109 3107 3104 3102 3100 3098 3096 3097 3095 3093 3092 3088 3087 3088 3088 3090 3093 3094 3095 3096 3097 3097 3096 3097 3101 3106 3109 3110 3111 3113 3115 3117 3118 3119 3121 3123 3125 3127 3128 3128 3128 3128 3130 3129 3127 3130 3134 3136 3138 3140 3141 3142 3142 3143 3145 3148 3150 3151 3151 3151 3153 3155 3157 3159 3159 3159 3160 3161 3163 3165 3165 3166 3167 3168 3169 3170 3171
3130 3128 3126 3124 3121 3119 3117 3115 3112 3110 3109 3107 3105 3102 3100 3099 3096 3094 3093 3092 3090 3089 3087 3085 3084 3084 3086 3089 3092 3093 3093 3094 3095 3095 3095 3097 3101 3104 3106 3108 3110 3112 3113 3113 3114 3117 3119 3121 3123 3122 3120 3119 3120 3122 3123 3126 3131 3133 3135 3137 3139 3139 3139 3140 3141 3143 3146 3147 3148 3148 3148 3150 3152 3153 3155 3156 3157 3158 3160 3162 3163 3164 3165 3166 3167 3167 3168 3169
3128 3126 3124 3122 3119 3117 3115 3113 3110 3108 3106 3104 3103 3100 3096 3093 3089 3086 3087 3089 3089 3085 3083 3082 3079 3078 3081 3086 3089 3089 3089 3090 3091 3093 3094 3095 3098 3101 3103 3104 3107 3109 3109 3109 3111 3113 3116 3118 3115 3111 3110 3114 3118 3121 3124 3128 3131 3133 3135 3136 3137 3137 3137 3138 3139 3140 3144 3145 3145 3145 3146 3147 3149 3150 3151 3152 3153 3156 3158 3159 3161 3162 3162 3163 3165 3166 3167 3168
3126 3124 3122 3120 3118 3115 3113 3111 3109 3106 3103 3102 3100 3096 3091 3087 3083 3079 3077 3082 3086 3082 3078 3078 3075 3073 3076 3082 3085 3085 3084 3085 3087 3091 3092 3093 3096 3098 3099 3101 3102 3103 3103 3107 3110 3112 3114 3112 3105 3104 3109 3115 3119 3122 3125 3127 3129 3131 3133 3134 3135 3135 3135 3135 3136 3138 3142 3143 3142 3143 3144 3146 3146 3146 3148 3149 3150 3152 3154 3156 3157 3158 3159 3161 3162 3164 3166 3167
3124 3122 3120 3118 3116 3114 3111 3109 3107 3105 3102 3100 3099 3096 3093 3089 3086 3083 3078 3076 3081 3080 3076 3075 3071 3069 3072 3075 3079 3079 3078 3079 3083 3088 3090 3090 3091 3092 3096 3097 3097 3098 3101 3106 3107 3109 3110 3102 3098 3104 3112 3116 3119 3122 3124 3126 3128 3129 3130 3132 3132 3132 3133 3132 3132 3136 3140 3141 3140 3141 3142 3143 3143 3143 3144 3146 3147 3148 3151 3152 3153 3155 3156 3158 3160 3162 3164 3165
3122 3120 3118 3115 3114 3113 3110 3108 3106 3104 3102 3100 3098 3096 3094 3092 3088 3087 3084 3080 3079 3078 3075 3073 3070 3067 3067 3069 3074 3072 3070 3074 3079 3083 3086 3086 3086 3088 3092 3093 3094 3097 3099 3100 3100 3102 3101 3094 3096 3107 3112 3114 3117 3119 3122 3124 3125 3126 3127 3128 3128 3129 3131 3129 3128 3132 3137 3138 3138 3138 3138 3139 3141 3142 3142 3143 3144 3146 3148 3149 3150 3152 3153 3155 3157 3159 3161 3163
3120 3118 3116 3113 3112 3111 3108 3106 3105 3102 3100 3098 3097 3095 3093 3091 3088 3086 3085 3082 3079 3076 3074 3072 3069 3066 3065 3066 3069 3066 3066 3071 3075 3079 3082 3082 3083 3086 3088 3090 3093 3094 3094 3096 3097 3097 3094 3092 3099 3107 3109 3111 3115 3116 3119 3122 3122 3123 3124 3124 3124 3126 3127 3125 3125 3130 3134 3135 3135 3135 3136 3136 3138 3140 3141 3141 3143 3144 3145 3147 3148 3149 3151 3153 3155 3156 3159 3160
3118 3116 3114 3111 3109 3108 3106 3104 3103 3101 3099 3097 3095 3094 3091 3089 3087 3084 3082 3081 3078 3075 3073 3071 3069 3067 3064 3064 3065 3064 3064 3067 3070 3075 3078 3079 3082 3083 3085 3089 3090 3089 3090 3094 3097 3095 3093 3095 3100 3103 3106 3109 3111 3113 3115 3117 3119 3120 3119 3120 3121 3123 3124 3123 3125 3130 3132 3131 3131 3132 3133 3134 3134 3136 3137 3139 3140 3142 3143 3144 3145 3146 3148 3150 3152 3154 3156 3157
3116 3114 3112 3109 3106 3105 3104 3102 3101 3099 3097 3096 3094 3092 3091 3089 3086 3083 3081 3080 3077 3075 3072 3070 3068 3067 3065 3065 3063 3062 3062 3064 3069 3074 3074 3076 3079 3081 3084 3085 3085 3086 3090 3094 3096 3093 3091 3096 3100 3102 3103 3106 3107 3109 3110 3114 3117 3115 3114 3117 3120 3121 3121 3121 3124 3128 3129 3128 3128 3129 3128 3129 3131 3131 3132 3134 3135 3137 3139 3140 3141 3143 3144 3146 3148 3150 3152 3155
3115 3112 3110 3108 3104 3102 3102 3100 3098 3096 3094 3094 3092 3090 3089 3087 3085 3082 3080 3079 3075 3072 3071 3070 3068 3066 3066 3066 3064 3063 3064 3065 3069 3072 3071 3073 3077 3079 3080 3081 3082 3084 3089 3094 3092 3086 3088 3094 3097 3099 3101 3102 3103 3103 3105 3110 3112 3108 3110 3117 3119 3119 3119 3118 3122 3126 3126 3126 3126 3126 3125 3124 3125 3126 3127 3129 3131 3133 3135 3136 3138 3140 3141 3143 3145 3147 3149 3152
3114 3111 3108 3107 3103 3100 3098 3097 3096 3093 3092 3091 3089 3089 3087 3084 3083 3081 3080 3079 3074 3070 3070 3070 3068 3067 3067 3068 3065 3064 3065 3066 3069 3071 3073 3075 3074 3075 3075 3077 3080 3082 3086 3089 3082 3080 3086 3089 3091 3096 3098 3097 3096 3097 3102 3107 3107 3106 3112 3117 3118 3119 3117 3116 3121 3123 3124 3125 3123 3123 3125 3123 3121 3122 3123 3126 3128 3130 3131 3132 3134 3136 3138 3140 3142 3144 3147 3149
3112 3109 3106 3105 3102 3099 3096 3095 3093 3091 3089 3088 3086 3086 3084 3082 3081 3080 3080 3078 3072 3069 3069 3068 3068 3067 3067 3068 3066 3064 3064 3065 3066 3068 3072 3074 3072 3072 3072 3075 3080 3082 3084 3083 3079 3082 3086 3086 3090 3094 3093 3092 3093 3097 3102 3105 3105 3107 3113 3116 3118 3119 3117 3116 3120 3121 3123 3123 3119 3118 3123 3122 3118 3119 3120 3122 3123 3125 3126 3128 3130 3132 3134 3136 3139 3141 3144 3147
3110 3108 3105 3103 3101 3098 3096 3094 3091 3089 3087 3086 3084 3082 3081 3080 3079 3079 3079 3075 3070 3068 3067 3066 3067 3066 3066 3067 3064 3061 3062 3063 3061 3059 3062 3068 3071 3071 3071 3075 3079 3080 3081 3080 3080 3082 3084 3087 3089 3089 3088 3090 3094 3098 3101 3102 3105 3108 3112 3115 3116 3117 3117 3115 3117 3120 3120 3117 3114 3115 3119 3121 3117 3115 3115 3115 3117 3119 3121 3124 3126 3129 3131 3133 3135 3138 3141 3143
3108 3106 3103 3101 3099 3097 3095 3093 3091 3088 3086 3085 3083 3080 3079 3079 3078 3078 3077 3073 3070 3068 3066 3065 3066 3065 3067 3067 3064 3060 3059 3059 3058 3056 3055 3061 3067 3069 3069 3072 3075 3076 3077 3077 3077 3079 3083 3085 3084 3083 3086 3090 3094 3096 3098 3100 3104 3106 3109 3112 3113 3114 3115 3114 3114 3116 3114 3111 3111 3111 3115 3118 3114 3111 3111 3111 3112 3115 3117 3119 3122 3125 3127 3128 3132 3135 3137 3140
3105 3104 3101 3099 3097 3094 3092 3091 3088 3086 3085 3083 3080 3078 3077 3077 3077 3078 3076 3072 3071 3069 3066 3065 3064 3064 3065 3066 3066 3063 3060 3058 3057 3057 3055 3056 3061 3064 3065 3067 3069 3072 3072 3071 3074 3076 3077 3078 3079 3082 3084 3086 3089 3091 3094 3098 3100 3102 3105 3108 3109 3110 3112 3111 3108 3108 3108 3108 3108 3108 3111 3112 3108 3107 3110 3111 3111 3112 3113 3115 3118 3121 3123 3125 3128 3132 3134 3137
3102 3101 3099 3096 3095 3092 3090 3088 3086 3084 3082 3080 3078 3077 3076 3076 3077 3077 3075 3073 3072 3070 3068 3066 3064 3065 3065 3064 3064 3063 3060 3058 3057 3056 3056 3056 3056 3059 3063 3066 3067 3067 3067 3069 3072 3073 3072 3073 3076 3079 3079 3080 3083 3085 3088 3091 3093 3097 3100 3101 3103 3105 3107 3107 3105 3103 3104 3104 3104 3106 3108 3105 3102 3104 3106 3108 3110 3111 3112 3112 3115 3119 3121 3122 3125 3128 3131 3134
3101 3099 3097 3095 3093 3090 3087 3085 3083 3082 3080 3078 3078 3076 3075 3076 3077 3076 3075 3074 3073 3070 3069 3067 3064 3065 3066 3065 3065 3062 3059 3057 3055 3055 3056 3055 3053 3055 3060 3064 3068 3069 3068 3068 3068 3068 3067 3066 3066 3069 3072 3076 3079 3080 3083 3087 3091 3092 3094 3097 3097 3096 3098 3100 3099 3098 3099 3100 3101 3104 3102 3097 3097 3100 3102 3106 3108 3110 3112 3113 3114 3116 3119 3120 3122 3125 3127 3130
3099 3096 3094 3092 3091 3088 3086 3084 3082 3080 3079 3078 3078 3076 3076 3077 3077 3076 3075 3074 3072 3070 3069 3067 3065 3064 3065 3064 3065 3064 3062 3058 3056 3055 3056 3056 3056 3057 3058 3059 3065 3068 3065 3063 3063 3064 3064 3061 3061 3067 3071 3074 3076 3078 3082 3086 3087 3088 3092 3094 3091 3089 3092 3096 3096 3095 3096 3098 3098 3097 3094 3092 3095 3097 3100 3104 3105 3107 3110 3111 3111 3113 3116 3119 3120 3122 3125 3126
3099 3095 3092 3090 3088 3086 3084 3083 3081 3080 3079 3078 3078 3077 3077 3077 3077 3076 3075 3073 3072 3070 3068 3066 3065 3064 3064 3063 3062 3063 3063 3060 3058 3056 3056 3057 3058 3058 3056 3055 3058 3058 3056 3057 3059 3062 3062 3058 3061 3068 3069 3071 3073 3075 3079 3081 3081 3084 3087 3085 3083 3088 3093 3095 3094 3094 3095 3096 3094 3091 3089 3090 3094 3094 3097 3100 3101 3102 3105 3106 3107 3108 3112 3116 3117 3119 3122 3123
3098 3093 3090 3088 3086 3084 3083 3082 3081 3080 3079 3079 3078 3077 3077 3077 3076 3076 3074 3073 3073 3071 3069 3067 3065 3065 3064 3063 3062 3061 3060 3059 3059 3057 3057 3058 3058 3057 3055 3054 3055 3054 3055 3058 3058 3060 3059 3054 3057 3064 3064 3065 3070 3073 3076 3077 3078 3079 3078 3078 3084 3092 3093 3093 3093 3092 3093 3094 3091 3089 3088 3089 3090 3089 3092 3096 3097 3098 3100 3102 3103 3104 3107 3111 3113 3116 3118 3120
3096 3092 3089 3086 3084 3082 3081 3080 3080 3079 3078 3078 3078 3077 3076 3076 3076 3075 3074 3073 3073 3072 3071 3069 3067 3066 3066 3064 3063 3062 3059 3058 3059 3059 3058 3058 3058 3056 3053 3052 3053 3054 3054 3054 3054 3055 3054 3050 3050 3055 3058 3061 3066 3069 3070 3071 3074 3074 3073 3076 3083 3085 3084 3086 3088 3088 3090 3091 3089 3088 3087 3087 3086 3085 3087 3091 3092 3093 3096 3098 3099 3099 3102 3106 3109 3113 3115 3116
3096 3093 3088 3084 3082 3081 3080 3080 3080 3079 3078 3077 3077 3076 3076 3076 3075 3074 3073 3072 3072 3072 3071 3069 3068 3066 3066 3065 3064 3062 3061 3059 3059 3060 3060 3058 3057 3056 3054 3052 3052 3052 3051 3051 3051 3051 3052 3052 3048 3048 3053 3058 3060 3061 3060 3062 3066 3070 3073 3075 3076 3077 3077 3080 3082 3082 3085 3088 3088 3088 3086 3083 3082 3083 3085 3085 3086 3089 3091 3094 3095 3095 3097 3101 3106 3109 3111 3112
3095 3092 3087 3083 3081 3080 3080 3080 3079 3078 3077 3076 3076 3076 3075 3075 3074 3074 3073 3071 3071 3071 3070 3069 3068 3066 3065 3065 3064 3063 3061 3060 3060 3061 3061 3059 3057 3056 3054 3053 3051 3049 3049 3051 3051 3049 3049 3051 3048 3044 3048 3052 3052 3052 3051 3053 3057 3062 3065 3067 3069 3072 3075 3078 3080 3080 3082 3084 3085 3086 3084 3079 3078 3079 3079 3079 3081 3084 3086 3089 3091 3091 3093 3098 3103 3106 3107 3109
3092 3089 3085 3082 3079 3078 3077 3078 3076 3075 3075 3075 3075 3075 3074 3073 3073 3073 3071 3070 3070 3070 3069 3068 3067 3066 3065 3064 3064 3063 3061 3060 3060 3060 3060 3058 3058 3056 3053 3052 3051 3049 3048 3048 3049 3048 3047 3047 3046 3042 3043 3045 3046 3048 3051 3052 3055 3058 3060 3062 3065 3067 3071 3075 3077 3077 3078 3080 3080 3082 3080 3075 3073 3075 3075 3075 3077 3079 3081 3084 3086 3088 3090 3094 3099 3102 3104 3106
3090 3087 3083 3078 3075 3073 3073 3074 3074 3073 3073 3073 3073 3072 3071 3071 3072 3071 3069 3068 3068 3068 3067 3067 3066 3065 3065 3064 3063 3062 3061 3060 3059 3059 3058 3056 3057 3056 3052 3051 3052 3051 3050 3049 3048 3050 3048 3047 3044 3040 3039 3041 3041 3045 3051 3054 3056 3059 3060 3061 3063 3065 3066 3067 3069 3071 3074 3077 3077 3078 3076 3071 3069 3072 3073 3073 3074 3075 3077 3080 3083 3085 3087 3091 3095 3099 3102 3104
3087 3086 3083 3076 3073 3070 3069 3070 3071 3071 3070 3069 3070 3069 3069 3070 3069 3068 3067 3067 3067 3067 3066 3066 3065 3065 3064 3064 3063 3062 3061 3059 3057 3057 3056 3054 3054 3054 3052 3051 3052 3051 3052 3050 3048 3049 3048 3046 3044 3039 3036 3037 3038 3041 3046 3050 3054 3056 3056 3059 3060 3061 3061 3062 3065 3068 3071 3073 3073 3075 3074 3068 3066 3069 3070 3069 3069 3070 3073 3076 3079 3081 3085 3089 3093 3096 3100 3103
3083 3083 3081 3075 3071 3069 3067 3068 3069 3069 3068 3068 3068 3067 3067 3068 3067 3065 3066 3066 3067 3066 3065 3065 3064 3064 3064 3063 3062 3061 3060 3058 3055 3054 3054 3052 3051 3051 3050 3051 3051 3051 3051 3050 3049 3048 3047 3046 3046 3043 3038 3036 3037 3039 3041 3044 3048 3049 3051 3054 3056 3057 3059 3062 3065 3068 3068 3069 3070 3073 3072 3066 3063 3066 3066 3064 3064 3065 3069 3073 3075 3078 3082 3086 3089 3093 3097 3101
3080 3078 3078 3075 3071 3068 3067 3067 3067 3067 3066 3066 3066 3066 3066 3066 3065 3065 3065 3066 3066 3065 3064 3064 3063 3063 3063 3062 3061 3060 3058 3057 3054 3052 3051 3050 3049 3048 3048 3048 3049 3050 3051 3051 3050 3050 3048 3046 3046 3045 3042 3037 3035 3036 3038 3040 3043 3045 3046 3048 3050 3054 3057 3059 3062 3063 3063 3065 3067 3069 3068 3063 3062 3065 3063 3059 3060 3062 3066 3070 3073 3076 3080 3083 3086 3089 3095 3099
3079 3074 3074 3074 3071 3069 3068 3067 3066 3066 3066 3065 3065 3065 3065 3065 3064 3064 3065 3064 3063 3063 3062 3062 3062 3061 3061 3060 3059 3058 3057 3055 3053 3051 3049 3048 3046 3045 3045 3045 3046 3047 3048 3049 3049 3049 3047 3044 3043 3043 3041 3037 3033 3032 3034 3037 3038 3039 3041 3044 3046 3051 3054 3057 3058 3058 3059 3063 3064 3064 3066 3063 3062 3064 3063 3060 3060 3062 3066 3069 3072 3075 3078 3081 3083 3086 3092 3096
3079 3075 3071 3070 3070 3069 3068 3067 3066 3066 3065 3064 3064 3064 3064 3064 3063 3063 3062 3062 3062 3061 3060 3060 3060 3059 3059 3058 3057 3056 3055 3053 3052 3049 3048 3046 3044 3043 3043 3042 3043 3045 3046 3046 3047 3047 3044 3040 3039 3039 3037 3034 3032 3029 3030 3034 3034 3034 3036 3039 3043 3047 3051 3053 3054 3054 3058 3061 3060 3062 3065 3062 3060 3064 3065 3062 3063 3064 3066 3069 3072 3074 3075 3077 3081 3085 3090 3094
3079 3076 3073 3070 3069 3067 3066 3065 3065 3065 3064 3063 3063 3063 3063 3063 3062 3061 3060 3060 3060 3060 3059 3058 3058 3057 3057 3057 3055 3054 3052 3051 3049 3047 3046 3043 3041 3039 3038 3039 3041 3041 3042 3043 3045 3045 3042 3038 3036 3034 3030 3027 3027 3026 3028 3031 3032 3031 3031 3034 3039 3044 3047 3049 3051 3054 3057 3057 3057 3061 3062 3060 3060 3065 3065 3064 3064 3065 3066 3070 3072 3073 3074 3076 3078 3082 3087 3091
3077 3075 3073 3071 3068 3066 3065 3064 3063 3063 3063 3062 3062 3062 3062 3061 3060 3059 3059 3058 3058 3058 3057 3056 3055 3055 3055 3055 3053 3052 3051 3049 3047 3045 3044 3042 3040 3037 3034 3035 3037 3038 3038 3039 3041 3042 3040 3036 3034 3031 3025 3023 3025 3026 3027 3029 3030 3029 3028 3030 3035 3040 3043 3047 3051 3054 3055 3055 3057 3060 3060 3059 3061 3064 3064 3063 3063 3064 3067 3069 3070 3072 3074 3075 3077 3080 3084 3088
3075 3073 3070 3068 3066 3066 3064 3063 3062 3062 3062 3062 3061 3061 3060 3060 3059 3059 3058 3057 3056 3055 3055 3054 3053 3053 3052 3052 3051 3050 3049 3048 3045 3044 3042 3041 3039 3037 3035 3034 3034 3035 3036 3036 3037 3039 3038 3035 3033 3029 3023 3021 3023 3024 3024 3027 3027 3026 3027 3029 3033 3037 3041 3045 3049 3052 3054 3055 3057 3058 3058 3059 3060 3062 3062 3060 3060 3063 3065 3067 3069 3071 3073 3075 3076 3079 3084 3087
3073 3072 3069 3066 3064 3064 3063 3062 3061 3061 3061 3060 3060 3060 3059 3059 3058 3056 3056 3056 3055 3054 3053 3052 3051 3050 3049 3049 3048 3047 3046 3045 3043 3042 3041 3040 3039 3037 3036 3035 3034 3034 3034 3034 3034 3036 3037 3034 3031 3029 3024 3020 3020 3020 3022 3025 3025 3024 3026 3030 3032 3034 3037 3041 3047 3051 3053 3054 3055 3056 3057 3058 3059 3059 3059 3058 3059 3061 3063 3065 3068 3070 3072 3074 3076 3079 3083 3086
3071 3070 3068 3065 3062 3062 3062 3061 3061 3060 3059 3059 3059 3058 3057 3057 3056 3054 3053 3053 3054 3053 3051 3050 3049 3048 3047 3047 3045 3044 3044 3042 3041 3040 3038 3037 3037 3036 3035 3034 3034 3033 3032 3032 3033 3034 3035 3034 3031 3030 3026 3020 3017 3018 3021 3023 3023 3023 3027 3028 3029 3032 3035 3040 3047 3049 3050 3052 3054 3054 3055 3057 3058 3057 3058 3058 3058 3059 3062 3065 3067 3069 3070 3073 3075 3078 3081 3085